Weather History for Ames, IA

Change the Weather History Date:

Saturday, November 24, 2012

  Actual Average Record
Temperature  
Mean Temperature 25 °F 32 °F  
Max Temperature 33 °F 41 °F 66 °F (2011)
Min Temperature 16 °F 23 °F -2 °F (2013)
Degree Days  
Heating Degree Days 40 33  
Month to date heating degree days 529 648  
Since 1 July heating degree days 1181 1244  
Cooling Degree Days 0 0  
Month to date cooling degree days 0 0  
Year to date cooling degree days 1067 752  
Moisture  
Dew Point 16 °F    
Average Humidity 65    
Maximum Humidity 80    
Minimum Humidity 49    
Precipitation  
Precipitation 0.00 in 0.05 in 0.54 in (1983)
Month to date precipitation 1.10 1.81  
Sea Level Pressure  
Sea Level Pressure 30.16 in    
Wind  
Wind Speed 7 mph (South)    
Max Wind Speed 16 mph    
Max Gust Speed 20 mph    
Visibility 10 miles    
Events      
T = Trace of Precipitation, MM = Missing Value Source: NWS Daily Summary

Daily Weather History Graph

Daily Weather History Graph

Search for Another Location

Airport:

Trip Planner

Search our weather history database for the weather conditions in past years. The results will help you decide how hot, cold, wet, or windy it might be!

Date:

Astronomy

Nov. 24, 2012 Rise Set
Actual Time 7:15 AM CST 4:46 PM CST
Civil Twilight 6:45 AM CST 5:17 PM CST
Nautical Twilight 6:10 AM CST 5:51 PM CST
Astronomical Twilight 5:37 AM CST 6:25 PM CST
Moon 2:34 PM CST (11/24) 3:30 AM CST (11/24)
Length of Visible Light 10h 32m
Length of Day
9h 30m
Waxing Gibbous, 87% of the Moon is Illuminated
Nov 24
Waxing Gibbous
Nov 28
Full
Dec 6
Last Quarter
Dec 13
New
Dec 19
First Quarter

Hourly Weather History & Observations

Time (CST) Temp. Windchill Dew Point Humidity Pressure Visibility Wind Dir Wind Speed Gust Speed Precip Events Conditions
12:53 AM 19.0 °F 9.0 °F 12.0 °F 74% 30.40 in 10.0 mi NW 8.1 mph - N/A   Clear
1:53 AM 18.0 °F 7.7 °F 12.0 °F 78% 30.39 in 10.0 mi NNW 8.1 mph - N/A   Clear
2:53 AM 17.1 °F 6.6 °F 10.9 °F 77% 30.37 in 10.0 mi NNW 8.1 mph - N/A   Clear
3:53 AM 17.1 °F 10.0 °F 12.0 °F 81% 30.37 in 10.0 mi NNW 4.6 mph - N/A   Clear
4:53 AM 16.0 °F 5.3 °F 10.9 °F 81% 30.36 in 10.0 mi NNW 8.1 mph - N/A   Clear
5:53 AM 17.1 °F 8.7 °F 12.0 °F 81% 30.35 in 10.0 mi North 5.8 mph - N/A   Clear
6:53 AM 17.1 °F 11.7 °F 12.0 °F 81% 30.35 in 10.0 mi NNW 3.5 mph - N/A   Clear
7:53 AM 18.0 °F - 12.0 °F 78% 30.33 in 10.0 mi Calm Calm - N/A   Mostly Cloudy
8:53 AM 19.0 °F - 12.9 °F 77% 30.32 in 10.0 mi Calm Calm - N/A   Overcast
9:53 AM 19.9 °F - 14.0 °F 78% 30.31 in 10.0 mi Calm Calm - N/A   Mostly Cloudy
10:53 AM 23.0 °F 15.8 °F 16.0 °F 74% 30.28 in 10.0 mi South 5.8 mph - N/A   Partly Cloudy
11:53 AM 26.1 °F 18.4 °F 17.1 °F 69% 30.22 in 10.0 mi South 6.9 mph - N/A   Scattered Clouds
12:53 PM 30.0 °F 21.1 °F 16.0 °F 56% 30.16 in 10.0 mi SSE 10.4 mph - N/A   Clear
1:53 PM 32.0 °F 22.1 °F 15.1 °F 50% 30.10 in 10.0 mi SSE 13.8 mph - N/A   Partly Cloudy
2:53 PM 33.1 °F 23.4 °F 17.1 °F 52% 30.04 in 10.0 mi SE 13.8 mph 19.6 mph N/A   Clear
3:53 PM 32.0 °F 23.6 °F 18.0 °F 56% 30.01 in 10.0 mi SE 10.4 mph - N/A   Clear
4:53 PM 30.9 °F 22.8 °F 19.0 °F 61% 29.99 in 10.0 mi SSE 9.2 mph - N/A   Clear
5:53 PM 30.9 °F 22.8 °F 18.0 °F 59% 29.98 in 10.0 mi SSE 9.2 mph - N/A   Clear
6:53 PM 32.0 °F 23.6 °F 19.0 °F 59% 29.96 in 10.0 mi SSE 10.4 mph - N/A   Clear
7:53 PM 32.0 °F 24.8 °F 19.9 °F 61% 29.94 in 10.0 mi SSE 8.1 mph - N/A   Clear
8:53 PM 30.9 °F 23.5 °F 19.0 °F 61% 29.92 in 10.0 mi South 8.1 mph - N/A   Clear
9:53 PM 32.0 °F 24.2 °F 19.9 °F 61% 29.89 in 10.0 mi South 9.2 mph - N/A   Clear
10:53 PM 33.1 °F 28.7 °F 21.0 °F 61% 29.88 in 10.0 mi South 4.6 mph - N/A   Partly Cloudy
11:53 PM 32.0 °F 27.5 °F 21.9 °F 66% 29.87 in 10.0 mi South 4.6 mph - N/A   Partly Cloudy